Weather History for West Palm Beach, FL

Change the Weather History Date:

Tuesday, February 4, 2014

  Actual Average Record
Temperature  
Mean Temperature 78 °F 67 °F  
Max Temperature 83 °F 76 °F 87 °F (1990)
Min Temperature 72 °F 58 °F 33 °F (1917)
Degree Days  
Heating Degree Days 0 2  
Month to date heating degree days 0 8  
Since 1 July heating degree days 102 165  
Cooling Degree Days 13 4  
Month to date cooling degree days 50 16  
Year to date cooling degree days 172 124  
Growing Degree Days 27 (Base 50)    
Moisture  
Dew Point 69 °F    
Average Humidity 78    
Maximum Humidity 93    
Minimum Humidity 63    
Precipitation  
Precipitation 0.00 in 0.10 in 2.73 in (1964)
Month to date precipitation 0.06 0.40  
Year to date precipitation 10.48 3.53  
Snow  
Snow 0.00 in - - ()
Month to date snowfall 0.0  
Since 1 July snowfall 0.0  
Snow Depth 0.00 in    
Sea Level Pressure  
Sea Level Pressure 30.08 in    
Wind  
Wind Speed 12 mph (SE)    
Max Wind Speed 21 mph    
Max Gust Speed 25 mph    
Visibility 10 miles    
Events      
T = Trace of Precipitation, MM = Missing Value Source: NWS Daily Summary

Daily Weather History Graph

Daily Weather History Graph

Search for Another Location

Airport:

Trip Planner

Search our weather history database for the weather conditions in past years. The results will help you decide how hot, cold, wet, or windy it might be!

Date:

Astronomy

Feb. 04, 2014 Rise Set
Actual Time 7:03 AM EST 6:05 PM EST
Civil Twilight 6:39 AM EST 6:29 PM EST
Nautical Twilight 6:12 AM EST 6:56 PM EST
Astronomical Twilight 5:44 AM EST 7:24 PM EST
Moon 10:15 AM EST (2/4) 11:20 PM EST (2/4)
Length of Visible Light 11h 49m
Length of Day
11h 01m
Waxing Crescent, 29% of the Moon is Illuminated
Feb 4
Waxing Crescent
Feb 6
First Quarter
Feb 14
Full
Feb 22
Last Quarter
Mar 1
New

Hourly Weather History & Observations

Time (EST) Temp. Heat Index Dew Point Humidity Pressure Visibility Wind Dir Wind Speed Gust Speed Precip Events Conditions
12:53 AM 73.0 °F - 71.1 °F 93% 30.08 in 10.0 mi Calm Calm - N/A   Mostly Cloudy
1:53 AM 75.0 °F - 71.1 °F 87% 30.07 in 10.0 mi SE 8.1 mph - N/A   Mostly Cloudy
2:53 AM 75.9 °F - 71.1 °F 85% 30.06 in 10.0 mi SE 8.1 mph - N/A   Overcast
3:53 AM 75.9 °F - 70.0 °F 82% 30.06 in 10.0 mi SE 5.8 mph - N/A   Overcast
4:53 AM 75.9 °F - 70.0 °F 82% 30.07 in 10.0 mi SE 10.4 mph - N/A   Overcast
5:53 AM 75.0 °F - 69.1 °F 82% 30.08 in 10.0 mi SSE 9.2 mph - N/A   Overcast
6:53 AM 75.0 °F - 69.1 °F 82% 30.09 in 10.0 mi SE 5.8 mph - N/A   Mostly Cloudy
7:53 AM 75.9 °F - 70.0 °F 82% 30.11 in 10.0 mi SSE 6.9 mph - N/A   Mostly Cloudy
8:53 AM 78.1 °F - 69.1 °F 74% 30.13 in 10.0 mi SE 10.4 mph - N/A   Mostly Cloudy
9:53 AM 79.0 °F - 69.1 °F 72% 30.14 in 10.0 mi SE 15.0 mph - N/A   Mostly Cloudy
10:53 AM 81.0 °F 84.1 °F 69.1 °F 67% 30.14 in 10.0 mi SE 15.0 mph - N/A   Mostly Cloudy
11:53 AM 82.0 °F 84.9 °F 68.0 °F 62% 30.12 in 10.0 mi SE 16.1 mph - N/A   Mostly Cloudy
12:53 PM 81.0 °F 83.8 °F 68.0 °F 65% 30.09 in 10.0 mi SE 16.1 mph - N/A   Mostly Cloudy
1:53 PM 82.0 °F 84.9 °F 68.0 °F 62% 30.07 in 10.0 mi SE 13.8 mph - N/A   Scattered Clouds
2:44 PM 80.1 °F 82.7 °F 68.0 °F 67% 30.06 in 10.0 mi SSE 16.1 mph - N/A   Mostly Cloudy
2:53 PM 81.0 °F 84.1 °F 69.1 °F 67% 30.06 in 10.0 mi SE 17.3 mph 21.9 mph N/A   Mostly Cloudy
3:13 PM 81.0 °F 83.8 °F 68.0 °F 65% 30.05 in 10.0 mi SE 17.3 mph - N/A   Scattered Clouds
3:53 PM 80.1 °F 82.7 °F 68.0 °F 67% 30.05 in 10.0 mi SE 17.3 mph - N/A   Scattered Clouds
4:53 PM 79.0 °F - 68.0 °F 69% 30.06 in 10.0 mi SE 18.4 mph - N/A   Scattered Clouds
5:53 PM 77.0 °F - 68.0 °F 74% 30.06 in 10.0 mi SE 13.8 mph - N/A   Scattered Clouds
6:53 PM 77.0 °F - 68.0 °F 74% 30.06 in 10.0 mi SE 11.5 mph - N/A   Partly Cloudy
7:53 PM 75.9 °F - 69.1 °F 79% 30.07 in 10.0 mi SE 13.8 mph - N/A   Partly Cloudy
8:53 PM 75.9 °F - 68.0 °F 76% 30.08 in 10.0 mi SE 11.5 mph - N/A   Partly Cloudy
9:53 PM 75.9 °F - 68.0 °F 76% 30.08 in 10.0 mi SE 12.7 mph - N/A   Partly Cloudy
10:53 PM 75.9 °F - 69.1 °F 79% 30.08 in 10.0 mi SE 15.0 mph - N/A   Scattered Clouds
11:11 PM 75.9 °F - 69.1 °F 79% 30.08 in 10.0 mi SE 15.0 mph - N/A   Mostly Cloudy
11:53 PM 77.0 °F - 70.0 °F 79% 30.07 in 10.0 mi SE 15.0 mph - N/A   Mostly Cloudy